Location: Marcé
(47.5801°N, 0.3280°W)
Time: 12:25:32
(UTC+01:00)

ISS - Pass Details

Date: 29 October 2021
Orbit: 417 x 422 km, 51.6° (Epoch: 07 December)

Event Time Altitude Azimuth Distance (km) Brightness Sun altitude
Exits shadow 06:25:44 43° 53° (NE) 604 -2.7 -23.3°
Drops below altitude 10° 06:28:08 10° 65° (ENE) 1,501 0.0 -22.9°
Sets 06:30:14 0° 67° (ENE) 2,366 1.3 -22.5°
